Location: Waltman Observatory
(32.5145°N, 90.4450°W)
Time: 05:33:14
(UTC-05:00)

Amateur Radio Satellites - All Passes

Search period start: 27 April 2015 05:03
Search period end: 28 April 2015 05:03
Location: Waltman Observatory, 32.5145°N, 90.4450°W

Satellite Date Start Highest point End Downlink Frequencies (MHz)
Time Altitude Azimuth
JUGNU 27 Apr 05:21:57 05:25:11 15° 194° (SSW) 05:28:21 437.505
DANDE 27 Apr 05:28:37 05:36:16 51° 266° (W) 05:44:25 436.750
MOZHAYETS 4 27 Apr 05:29:26 05:33:52 44° 262° (W) 05:38:19
JAS-2 27 Apr 05:31:02 05:37:02 58° 287° (WNW) 05:42:22 435.910
HORYU 2 27 Apr 05:33:06 05:36:43 24° 289° (WNW) 05:40:12 437.375
SRMSAT 27 Apr 05:33:08 05:37:33 22° 187° (S) 05:41:56 437.500
CUBESAT XI-V 27 Apr 05:35:50 05:37:50 13° 69° (ENE) 05:40:04 437.345
M-CUBED/EXP-1 PRIME 27 Apr 05:51:11 05:55:30 35° 68° (ENE) 05:59:54 437.505
CUTE-I 27 Apr 06:17:29 06:20:56 18° 93° (E) 06:24:36 437.470
STRAND 1 27 Apr 06:18:48 06:22:26 21° 69° (ENE) 06:26:13 437.568
CUSAT 1 27 Apr 06:24:35 06:29:12 15° 274° (W) 06:33:17 437.405
Cubesat XI-IV 27 Apr 06:27:05 06:31:11 23° 95° (E) 06:35:25 437.490
AUBIESAT-1 27 Apr 06:31:32 06:36:18 86° 76° (ENE) 06:41:08 437.475
Cosmos 2499 27 Apr 06:37:44 06:45:15 64° 267° (W) 06:52:16 435.465 / 435.565
AO-7 27 Apr 06:55:34 07:01:49 23° 299° (WNW) 07:07:45 29.400- 29.500
PRISM 27 Apr 07:01:05 07:05:15 79° 77° (ENE) 07:09:25 437.425
CUBESAT XI-V 27 Apr 07:10:24 07:14:55 49° 261° (W) 07:19:24 437.345
SRMSAT 27 Apr 07:23:26 07:26:07 13° 195° (SSW) 07:28:42 437.500
M-CUBED/EXP-1 PRIME 27 Apr 07:26:42 07:30:24 21° 262° (W) 07:33:59 437.505
PCSat 27 Apr 07:40:28 07:45:36 48° 111° (ESE) 07:50:50 145.827
CUTE-I 27 Apr 07:56:12 08:01:15 44° 287° (WNW) 08:06:16 437.470
STRAND 1 27 Apr 07:56:41 08:01:25 37° 262° (W) 08:06:07 437.568
Cubesat XI-IV 27 Apr 08:06:33 08:11:22 35° 288° (WNW) 08:16:07 437.490
O/OREOS (USA 219) 27 Apr 08:10:08 08:14:23 42° 67° (ENE) 08:18:37 437.305
GOMX 1 27 Apr 08:39:36 08:43:46 24° 94° (E) 08:48:11 467.674
Cosmos 2491 27 Apr 08:43:42 08:48:47 17° 66° (ENE) 08:54:25 435.465 / 435.565
SEEDS 27 Apr 08:44:27 08:45:01 10° 90° (E) 08:45:54 437.485
HO-68 27 Apr 08:48:05 08:53:48 27° 95° (E) 08:59:44 435.675
CANX-2 27 Apr 08:53:32 08:56:41 20° 94° (E) 08:59:54 2200.000
BRITE-PL 27 Apr 08:59:58 09:05:10 61° 100° (E) 09:10:42 437.365/2234.400
CUTE 1.7 + AOD 2 27 Apr 09:02:12 09:05:35 23° 95° (E) 09:09:01 437.475
DOVE 4 27 Apr 09:07:37 09:12:09 30° 96° (E) 09:16:51 437.250
PCSat 27 Apr 09:25:21 09:29:20 20° 307° (NW) 09:33:11 145.827
CUBEBUG 2 27 Apr 09:29:36 09:30:38 11° 89° (E) 09:32:00 437.445
CINEMA 3 27 Apr 09:39:15 09:43:41 32° 96° (E) 09:48:11 145.822/145.860
YUBILEINY 27 Apr 09:43:10 09:49:06 22° 84° (E) 09:55:29 435.215
COMPASS 1 27 Apr 09:48:41 09:52:49 57° 100° (E) 09:56:55 437.405
UWE-3 27 Apr 09:50:32 09:53:14 16° 92° (E) 09:56:09 435.000/436.395/437.385
O/OREOS (USA 219) 27 Apr 09:51:18 09:53:27 13° 259° (W) 09:55:22 437.305
DELFI C3 27 Apr 09:54:56 09:57:26 16° 93° (E) 10:00:04 145.870
FUNcube-1 27 Apr 09:55:54 09:57:57 13° 91° (E) 10:00:16 145.935
ANTELSAT 27 Apr 10:08:05 10:11:35 23° 71° (ENE) 10:15:15 437.575/2403.000
Oscar 11 27 Apr 10:15:26 10:19:35 43° 99° (E) 10:23:42 145.826/435.025
SEEDS 27 Apr 10:17:05 10:21:09 47° 285° (WNW) 10:25:11 437.485
GOMX 1 27 Apr 10:17:08 10:21:54 35° 287° (WNW) 10:26:46 467.674
ZACube-1 27 Apr 10:20:31 10:24:25 27° 95° (E) 10:28:18 437.345
QB50P2 27 Apr 10:21:45 10:23:49 14° 69° (ENE) 10:26:07 145.880/145.840
CANX-2 27 Apr 10:29:02 10:32:35 25° 288° (WNW) 10:36:02 2200.000
AAUSAT CUBESAT 2 27 Apr 10:29:53 10:33:55 48° 285° (WNW) 10:37:54 437.432
ISS 27 Apr 10:32:59 10:35:58 35° 131° (SE) 10:38:59 145.825
HO-68 27 Apr 10:34:56 10:41:47 48° 290° (WNW) 10:48:32 435.675
NANOSAT C BR1 27 Apr 10:37:31 10:40:36 21° 71° (ENE) 10:43:49 145.865
Cosmos 2491 27 Apr 10:37:58 10:46:49 82° 266° (W) 10:55:39 435.465 / 435.565
CUTE 1.7 + AOD 2 27 Apr 10:38:03 10:41:25 22° 288° (WNW) 10:44:40 437.475
BRITE-PL 27 Apr 10:40:24 10:43:20 15° 291° (WNW) 10:46:04 437.365/2234.400
POPSAT HIP 1 27 Apr 10:41:20 10:44:37 23° 72° (ENE) 10:48:01 437.405
SO-50 27 Apr 10:42:58 10:47:09 37° 113° (ESE) 10:51:31 436.795
DOVE 4 27 Apr 10:45:25 10:49:47 27° 288° (WNW) 10:54:08 437.250
AISAT 27 Apr 10:50:20 10:52:40 14° 92° (E) 10:55:14 437.250
DX 1 27 Apr 10:52:13 10:56:10 34° 98° (E) 11:00:10 434.975-435.025
TIGRISAT 27 Apr 10:56:17 11:00:46 81° 78° (ENE) 11:05:24 435.000
BUGSAT 1 27 Apr 10:56:28 10:59:35 23° 72° (ENE) 11:02:47 437.445
UNISAT 6 27 Apr 11:01:25 11:05:55 85° 257° (WSW) 11:10:34 437.425
CUBEBUG 2 27 Apr 11:03:03 11:07:45 59° 285° (WNW) 11:12:24 437.445
DUCHIFAT 1 27 Apr 11:09:49 11:13:52 51° 75° (ENE) 11:17:58 145.980
POLYITAN 1 27 Apr 11:11:01 11:15:09 56° 75° (ENE) 11:19:19 437.675
CINEMA 3 27 Apr 11:16:41 11:20:43 24° 289° (WNW) 11:24:37 145.822/145.860
UWE-3 27 Apr 11:25:34 11:29:59 40° 286° (WNW) 11:34:17 435.000/436.395/437.385
QB50P1 27 Apr 11:28:22 11:32:34 88° 257° (WSW) 11:36:49 145.935-145.965
DELFI C3 27 Apr 11:29:09 11:32:38 27° 287° (WNW) 11:36:01 145.870
FUNcube-1 27 Apr 11:30:11 11:34:34 45° 285° (WNW) 11:38:53 145.935
UKube-1 27 Apr 11:32:24 11:36:45 80° 283° (WNW) 11:41:04 .
ESTCUBE 1 27 Apr 11:34:34 11:38:12 25° 95° (E) 11:41:55 437.505/2401.250
HUMSAT D 27 Apr 11:36:25 11:40:45 81° 284° (WNW) 11:45:02 437.325/437.525
YUBILEINY 27 Apr 11:36:31 11:45:17 66° 279° (W) 11:54:03 435.215
ANTELSAT 27 Apr 11:44:24 11:48:14 27° 265° (W) 11:52:07 437.575/2403.000
BEESAT 3 27 Apr 11:51:16 11:55:20 65° 61° (ENE) 11:59:19 437.485
Oscar 11 27 Apr 11:53:20 11:55:25 13° 291° (WNW) 11:57:16 145.826/435.025
BEESAT 2 27 Apr 11:55:05 11:59:08 58° 60° (ENE) 12:03:07 435.950
QB50P2 27 Apr 11:55:29 11:59:26 38° 262° (W) 12:03:23 145.880/145.840
ZACube-1 27 Apr 11:57:00 12:00:38 23° 289° (WNW) 12:04:08 437.345
CUBEBUG 1 27 Apr 12:06:22 12:10:38 52° 100° (E) 12:14:56 437.445
VELOX 1 27 Apr 12:06:25 12:10:50 69° 284° (WNW) 12:15:15 145.980
50 SAT 27 Apr 12:07:03 12:10:59 53° 285° (WNW) 12:14:52 437.505
ISS 27 Apr 12:10:06 12:12:25 18° 326° (NW) 12:14:42 145.825
NANOSAT C BR1 27 Apr 12:12:52 12:16:20 24° 264° (W) 12:19:45 145.865
POPSAT HIP 1 27 Apr 12:17:08 12:20:27 22° 265° (W) 12:23:41 437.405
RS-15 27 Apr 12:21:15 12:26:24 16° 103° (ESE) 12:32:33 29.354- 29.394
SO-50 27 Apr 12:24:15 12:27:50 21° 309° (NW) 12:31:24 436.795
AISAT 27 Apr 12:25:17 12:29:28 39° 286° (WNW) 12:33:37 437.250
DX 1 27 Apr 12:29:21 12:32:11 17° 290° (WNW) 12:34:51 434.975-435.025
AIST 1 27 Apr 12:31:57 12:36:04 49° 267° (W) 12:40:12
BUGSAT 1 27 Apr 12:31:59 12:35:02 20° 265° (W) 12:37:58 437.445
Cosmos 2491 27 Apr 12:39:33 12:42:36 12° 279° (W) 12:44:48 435.465 / 435.565
TISAT 1 27 Apr 12:42:17 12:45:44 24° 96° (E) 12:49:16 437.305
Cosmos 2504 27 Apr 12:59:07 13:07:11 43° 89° (E) 13:15:22 435.465 / 435.565
AIST 2 27 Apr 13:07:15 13:11:27 71° 243° (WSW) 13:15:33 435.215
ESTCUBE 1 27 Apr 13:11:23 13:14:59 24° 289° (WNW) 13:18:30 437.505/2401.250
SPROUT 27 Apr 13:19:29 13:23:50 84° 283° (WNW) 13:28:09 437.525
Gurwin Techsat 1B 27 Apr 13:33:01 13:35:33 14° 67° (ENE) 13:38:23 435.225
ITUPSAT 1 27 Apr 13:42:41 13:45:38 17° 93° (E) 13:48:47 437.325
CUBEBUG 1 27 Apr 13:45:10 13:46:37 11° 292° (WNW) 13:47:49 437.445
Oscar 19 27 Apr 13:49:19 13:54:27 87° 72° (ENE) 13:59:40 437.125/150
AO-7 27 Apr 14:10:58 14:11:41 10° 54° (NE) 14:13:06 29.400- 29.500
BEESAT 27 Apr 14:11:06 14:15:28 36° 98° (E) 14:19:52 436.000
SWISSCUBE 27 Apr 14:13:51 14:18:21 43° 99° (E) 14:22:53 437.505
TISAT 1 27 Apr 14:18:07 14:21:25 22° 289° (WNW) 14:24:37 437.305
RS-15 27 Apr 14:26:39 14:37:33 87° 117° (ESE) 14:48:38 29.354- 29.394
ITAMSAT 1 27 Apr 14:28:27 14:33:32 61° 75° (ENE) 14:38:39 435.822/435.867
HORYU 2 27 Apr 14:51:47 14:54:00 14° 68° (ENE) 14:56:27 437.375
Cosmos 2504 27 Apr 14:52:36 15:00:41 37° 285° (WNW) 15:08:32 435.465 / 435.565
VERMONT LUNAR 27 Apr 15:02:59 15:06:08 39° 147° (SSE) 15:09:18 437.305
Gurwin Techsat 1B 27 Apr 15:09:51 15:15:05 60° 259° (W) 15:20:21 435.225
KKS-1 27 Apr 15:11:07 15:14:54 27° 96° (E) 15:18:46 437.445
ITUPSAT 1 27 Apr 15:19:17 15:23:42 38° 287° (WNW) 15:28:04 437.325
JAS-2 27 Apr 15:35:29 15:42:39 42° 71° (ENE) 15:49:44 435.910
BEESAT 27 Apr 15:49:45 15:53:05 18° 291° (WNW) 15:56:14 436.000
PHONESAT 2.4 27 Apr 15:51:42 15:54:54 32° 146° (SE) 15:58:08 2401.200-2431.200
SWISSCUBE 27 Apr 15:53:00 15:55:55 16° 292° (WNW) 15:58:38 437.505
AO-7 27 Apr 15:55:03 16:03:08 63° 70° (ENE) 16:11:18 29.400- 29.500
STARS 27 Apr 16:00:16 16:04:42 64° 101° (E) 16:09:07 437.465
GONETS M04 27 Apr 16:00:18 16:08:07 40° 89° (E) 16:16:10
ITAMSAT 1 27 Apr 16:11:23 16:13:31 12° 269° (W) 16:15:17 435.822/435.867
HORYU 2 27 Apr 16:26:02 16:30:19 43° 261° (W) 16:34:37 437.375
PCSat 27 Apr 16:34:11 16:37:23 16° 50° (NE) 16:40:48 145.827
VERMONT LUNAR 27 Apr 16:40:27 16:43:36 36° 341° (NNW) 16:46:47 437.305
RS-15 27 Apr 16:42:59 16:51:36 25° 321° (NW) 17:00:01 29.354- 29.394
KKS-1 27 Apr 16:47:56 16:51:25 22° 289° (WNW) 16:54:47 437.445
DANDE 27 Apr 16:55:54 16:58:23 21° 87° (E) 17:01:29 436.750
Cosmos 2499 27 Apr 17:16:56 17:22:30 20° 85° (E) 17:28:32 435.465 / 435.565
JAS-2 27 Apr 17:20:30 17:27:38 37° 264° (W) 17:34:33 435.910
MOZHAYETS 4 27 Apr 17:29:01 17:33:33 61° 100° (E) 17:38:03
PHONESAT 2.4 27 Apr 17:29:37 17:33:04 45° 339° (NNW) 17:36:32 2401.200-2431.200
CUTE-I 27 Apr 17:35:10 17:38:49 20° 68° (ENE) 17:42:40 437.470
CUSAT 1 27 Apr 17:44:00 17:47:22 47° 283° (WNW) 17:51:48 437.405
Cubesat XI-IV 27 Apr 17:44:50 17:49:03 25° 70° (ENE) 17:53:24 437.490
AO-7 27 Apr 17:50:04 17:56:29 23° 266° (W) 18:02:34 29.400- 29.500
GONETS M04 27 Apr 17:56:58 18:04:59 37° 285° (WNW) 18:12:54
PCSat 27 Apr 18:15:57 18:21:18 62° 248° (WSW) 18:26:37 145.827
VERMONT LUNAR 27 Apr 18:19:00 18:21:37 20° 358° (N) 18:24:13 437.305
ISS 27 Apr 18:39:46 18:43:00 58° 43° (NE) 18:46:11 145.825
DANDE 27 Apr 18:39:52 18:41:48 14° 295° (WNW) 18:43:48 436.750
PRISM 27 Apr 18:49:30 18:51:50 15° 93° (E) 18:54:19 437.425
Cosmos 2499 27 Apr 19:06:08 19:15:01 73° 278° (W) 19:23:42 435.465 / 435.565
PHONESAT 2.4 27 Apr 19:08:56 19:11:49 22° 356° (N) 19:14:43 2401.200-2431.200
MOZHAYETS 4 27 Apr 19:09:24 19:10:18 10° 293° (WNW) 19:10:55
CUBESAT XI-V 27 Apr 19:11:32 19:16:05 57° 100° (E) 19:20:39 437.345
M-CUBED/EXP-1 PRIME 27 Apr 19:12:32 19:16:25 49° 103° (ESE) 19:19:59 437.505
CUTE-I 27 Apr 19:13:36 19:18:38 42° 261° (W) 19:23:39 437.470
HO-68 27 Apr 19:15:20 19:17:50 12° 60° (ENE) 19:20:49 435.675
SO-50 27 Apr 19:20:16 19:22:23 13° 46° (NE) 19:24:43 436.795
Cubesat XI-IV 27 Apr 19:24:15 19:29:01 33° 263° (W) 19:33:45 437.490
GOMX 1 27 Apr 19:46:03 19:47:28 12° 68° (ENE) 19:49:09 467.674
AUBIESAT-1 27 Apr 19:52:48 19:56:42 52° 290° (WNW) 20:00:14 437.475
CUTE 1.7 + AOD 2 27 Apr 19:53:49 19:54:02 10° 68° (ENE) 19:54:32 437.475
VERMONT LUNAR 27 Apr 19:56:39 19:59:41 29° 15° (NNE) 20:02:42 437.305
BRITE-PL 27 Apr 20:07:36 20:11:20 35° 74° (ENE) 20:15:15 437.365/2234.400
DOVE 4 27 Apr 20:10:39 20:13:02 15° 69° (ENE) 20:15:40 437.250
STRAND 1 27 Apr 20:11:22 20:16:28 77° 284° (WNW) 20:21:34 437.568
PRISM 27 Apr 20:23:45 20:27:24 31° 287° (WNW) 20:30:59 437.425
COMPASS 1 27 Apr 20:36:06 20:39:20 22° 72° (ENE) 20:42:41 437.405
CINEMA 3 27 Apr 20:38:07 20:40:36 16° 69° (ENE) 20:43:20 145.822/145.860
PHONESAT 2.4 27 Apr 20:47:31 20:50:42 29° 13° (NNE) 20:53:53 2401.200-2431.200
CUBESAT XI-V 27 Apr 20:51:34 20:53:06 11° 292° (WNW) 20:54:21 437.345
HO-68 27 Apr 20:57:28 21:04:39 81° 74° (ENE) 21:11:53 435.675
SO-50 27 Apr 20:58:37 21:03:34 76° 243° (WSW) 21:08:25 436.795
SEEDS 27 Apr 21:04:10 21:08:22 63° 77° (ENE) 21:12:37 437.485
Oscar 11 27 Apr 21:06:33 21:09:39 20° 71° (ENE) 21:12:53 145.826/435.025
Cosmos 2499 27 Apr 21:06:55 21:09:51 11° 297° (WNW) 21:11:55 435.465 / 435.565
ZACube-1 27 Apr 21:13:59 21:15:43 13° 68° (ENE) 21:17:43 437.345
AAUSAT CUBESAT 2 27 Apr 21:15:45 21:19:54 59° 77° (ENE) 21:24:05 437.432
CANX-2 27 Apr 21:16:28 21:20:44 65° 259° (W) 21:25:02 2200.000
GOMX 1 27 Apr 21:21:13 21:25:13 44° 262° (W) 21:29:23 467.674
RS-15 27 Apr 21:22:30 21:29:37 19° 32° (NNE) 21:37:28 29.354- 29.394
CUTE 1.7 + AOD 2 27 Apr 21:25:19 21:29:32 56° 260° (W) 21:33:47 437.475
VERMONT LUNAR 27 Apr 21:33:57 21:37:17 60° 210° (SSW) 21:40:36 437.305
Cosmos 2491 27 Apr 21:39:16 21:45:24 23° 85° (E) 21:51:59 435.465 / 435.565
DX 1 27 Apr 21:44:29 21:47:15 17° 70° (ENE) 21:50:11 434.975-435.025
DOVE 4 27 Apr 21:46:37 21:50:31 35° 263° (W) 21:54:33 437.250
BRITE-PL 27 Apr 21:48:06 21:50:09 13° 269° (W) 21:52:00 437.365/2234.400
YUBILEINY 27 Apr 21:52:36 22:01:01 51° 78° (ENE) 22:09:25 435.215
CUBEBUG 2 27 Apr 21:56:32 22:00:50 66° 77° (ENE) 22:05:18 437.445
DELFI C3 27 Apr 22:11:18 22:15:24 88° 255° (WSW) 22:19:30 145.870
COMPASS 1 27 Apr 22:11:29 22:14:56 23° 265° (W) 22:18:18 437.405
CINEMA 3 27 Apr 22:13:30 22:17:30 37° 263° (W) 22:21:39 145.822/145.860
O/OREOS (USA 219) 27 Apr 22:17:21 22:21:54 66° 290° (WNW) 22:26:27 437.305
UWE-3 27 Apr 22:17:41 22:22:01 86° 258° (WSW) 22:26:31 435.000/436.395/437.385
FUNcube-1 27 Apr 22:20:56 22:25:15 80° 77° (ENE) 22:29:42 145.935
UKube-1 27 Apr 22:22:44 22:26:51 46° 74° (ENE) 22:31:00 .
HUMSAT D 27 Apr 22:23:45 22:27:38 37° 74° (ENE) 22:31:37 437.325/437.525
PHONESAT 2.4 27 Apr 22:25:35 22:29:10 75° 209° (SSW) 22:32:43 2401.200-2431.200
ESTCUBE 1 27 Apr 22:31:15 22:33:29 14° 69° (ENE) 22:35:57 437.505/2401.250
Oscar 11 27 Apr 22:41:55 22:45:41 28° 264° (W) 22:49:24 145.826/435.025
ZACube-1 27 Apr 22:47:31 22:51:41 46° 262° (W) 22:55:58 437.345
50 SAT 27 Apr 22:47:39 22:51:25 42° 75° (ENE) 22:55:15 437.505
HO-68 27 Apr 22:49:28 22:53:14 14° 270° (W) 22:56:26 435.675
TIGRISAT 27 Apr 22:53:20 22:57:08 25° 95° (E) 23:00:58 435.000
UNISAT 6 27 Apr 22:58:33 23:02:36 29° 96° (E) 23:06:39 437.425
CUBEBUG 1 27 Apr 22:58:42 23:02:09 24° 72° (ENE) 23:05:41 437.445
VELOX 1 27 Apr 22:59:25 23:03:43 58° 75° (ENE) 23:08:03 145.980
DUCHIFAT 1 27 Apr 23:01:10 23:02:46 12° 91° (E) 23:04:38 145.980
POLYITAN 1 27 Apr 23:02:43 23:04:48 14° 92° (E) 23:07:08 437.675
AISAT 27 Apr 23:18:11 23:22:34 79° 258° (WSW) 23:26:59 437.250
QB50P1 27 Apr 23:18:50 23:22:05 21° 95° (E) 23:25:27 145.935-145.965
DX 1 27 Apr 23:19:24 23:23:18 32° 263° (W) 23:27:09 434.975-435.025
TISAT 1 27 Apr 23:32:55 23:33:33 10° 68° (ENE) 23:34:28 437.305
Cosmos 2491 27 Apr 23:33:05 23:41:41 61° 280° (W) 23:50:20 435.465 / 435.565
RS-15 27 Apr 23:33:23 23:44:57 67° 58° (ENE) 23:57:02 29.354- 29.394
ANTELSAT 27 Apr 23:40:12 23:44:56 88° 283° (WNW) 23:49:31 437.575/2403.000
JUGNU 27 Apr 23:41:25 23:44:52 16° 167° (SSE) 23:48:23 437.505
QB50P2 27 Apr 23:45:07 23:49:16 47° 99° (E) 23:53:25 145.880/145.840
YUBILEINY 27 Apr 23:50:18 23:57:28 28° 274° (W) 00:04:18 435.215
HUMSAT D 28 Apr 00:01:22 00:03:36 14° 268° (W) 00:05:38 437.325/437.525
NANOSAT C BR1 28 Apr 00:01:24 00:05:41 74° 101° (E) 00:09:58 145.865
UKube-1 28 Apr 00:01:48 00:03:17 11° 269° (W) 00:04:30 .
POPSAT HIP 1 28 Apr 00:05:42 00:10:03 84° 105° (ESE) 00:14:20 437.405
ESTCUBE 1 28 Apr 00:05:44 00:10:03 43° 262° (W) 00:14:20 437.505/2401.250
PHONESAT 2.4 28 Apr 00:05:54 00:07:01 11° 220° (SW) 00:08:00 2401.200-2431.200
SPROUT 28 Apr 00:09:14 00:13:12 39° 74° (ENE) 00:17:13 437.525
BUGSAT 1 28 Apr 00:17:19 00:21:31 78° 103° (ESE) 00:25:44 437.445
50 SAT 28 Apr 00:25:38 00:26:30 10° 269° (W) 00:27:05 437.505
TIGRISAT 28 Apr 00:29:56 00:33:50 25° 289° (WNW) 00:37:33 435.000
DUCHIFAT 1 28 Apr 00:34:46 00:38:50 42° 286° (WNW) 00:42:53 145.980
CUBEBUG 1 28 Apr 00:35:04 00:38:29 22° 265° (W) 00:41:47 437.445
UNISAT 6 28 Apr 00:35:37 00:39:14 22° 289° (WNW) 00:42:39 437.425
POLYITAN 1 28 Apr 00:36:53 00:40:55 38° 286° (WNW) 00:44:55 437.675
ITUPSAT 1 28 Apr 00:46:33 00:48:23 12° 67° (ENE) 00:50:31 437.325
Cosmos 2504 28 Apr 00:50:48 00:58:37 68° 81° (E) 01:05:54 435.465 / 435.565
QB50P1 28 Apr 00:54:22 00:57:56 25° 288° (WNW) 01:01:22 145.935-145.965
AIST 1 28 Apr 00:56:19 01:00:36 67° 277° (W) 01:04:52
TISAT 1 28 Apr 01:04:53 01:08:57 50° 260° (W) 01:13:02 437.305
BEESAT 28 Apr 01:13:33 01:17:25 26° 71° (ENE) 01:21:23 436.000
SWISSCUBE 28 Apr 01:16:15 01:20:22 30° 72° (ENE) 01:24:32 437.505
QB50P2 28 Apr 01:23:01 01:24:48 12° 291° (WNW) 01:26:20 145.880/145.840
JUGNU 28 Apr 01:28:42 01:33:18 23° 176° (S) 01:37:54 437.505
BEESAT 3 28 Apr 01:40:06 01:43:48 36° 113° (ESE) 01:47:35 437.485
SRMSAT 28 Apr 01:43:42 01:47:30 18° 168° (SSE) 01:51:20 437.500
BEESAT 2 28 Apr 01:44:49 01:48:28 33° 113° (ESE) 01:52:13 435.950
RS-15 28 Apr 01:47:00 01:56:51 30° 253° (WSW) 02:06:28 29.354- 29.394
SPROUT 28 Apr 01:47:26 01:49:31 13° 268° (W) 01:51:21 437.525
Oscar 19 28 Apr 02:05:43 02:10:41 45° 99° (E) 02:15:39 437.125/150
KKS-1 28 Apr 02:06:15 02:08:37 15° 69° (ENE) 02:11:13 437.445
GONETS M04 28 Apr 02:18:23 02:22:23 14° 64° (ENE) 02:27:05
ITUPSAT 1 28 Apr 02:21:09 02:25:52 56° 260° (W) 02:30:35 437.325
CUSAT 1 28 Apr 02:43:34 02:47:31 15° 65° (ENE) 02:52:10 437.405
ITAMSAT 1 28 Apr 02:46:18 02:50:51 32° 97° (E) 02:55:29 435.822/435.867
Cosmos 2504 28 Apr 02:46:26 02:51:13 17° 277° (W) 02:55:24 435.465 / 435.565
BEESAT 28 Apr 02:51:11 02:55:12 26° 264° (W) 02:59:08 436.000
STARS 28 Apr 02:53:02 02:56:52 31° 72° (ENE) 03:00:47 437.465
SWISSCUBE 28 Apr 02:54:29 02:58:14 22° 265° (W) 03:01:52 437.505
AIST 2 28 Apr 03:00:31 03:04:44 76° 117° (ESE) 03:09:01 435.215
JUGNU 28 Apr 03:17:16 03:21:46 22° 186° (S) 03:26:14 437.505
BEESAT 3 28 Apr 03:19:16 03:21:58 16° 309° (NW) 03:24:34 437.485
BEESAT 2 28 Apr 03:23:48 03:26:42 18° 308° (NW) 03:29:30 435.950
Gurwin Techsat 1B 28 Apr 03:30:39 03:35:59 81° 102° (ESE) 03:41:18 435.225
SRMSAT 28 Apr 03:31:29 03:36:06 24° 178° (S) 03:40:42 437.500
DANDE 28 Apr 03:37:36 03:44:28 32° 74° (ENE) 03:52:01 436.750
KKS-1 28 Apr 03:40:48 03:44:57 40° 261° (W) 03:49:08 437.445
Oscar 19 28 Apr 03:46:12 03:49:43 18° 292° (WNW) 03:53:01 437.125/150
AO-7 28 Apr 04:02:42 04:09:17 27° 95° (E) 04:16:10 29.400- 29.500
GONETS M04 28 Apr 04:11:49 04:20:43 88° 84° (E) 04:29:32
HORYU 2 28 Apr 04:21:45 04:26:06 50° 100° (E) 04:30:27 437.375
CUSAT 1 28 Apr 04:23:17 04:31:21 82° 82° (E) 04:39:39 437.405
ITAMSAT 1 28 Apr 04:26:02 04:30:14 25° 290° (WNW) 04:34:19 435.822/435.867
MOZHAYETS 4 28 Apr 04:26:33 04:30:41 34° 73° (ENE) 04:34:53
STARS 28 Apr 04:30:22 04:33:24 18° 266° (W) 04:36:18 437.465
JAS-2 28 Apr 04:36:16 04:41:56 44° 97° (E) 04:47:05 435.910
